Regional Weather Roundup
Issued by NWS Nashville, TN

Home | Current Version | Previous Version | Text Only | Print | Product List | Glossary On
Versions: 1 2 3 4 5 6 7 8 9 10 11 12 13 14 15 16 17 18 19 20 21 22 23 24 25 26 27 28 29 30 31 32 33 34 35 36 37 38 39 40 41 42 43 44 45 46 47 48 49 50
000
ASUS44 KOHX 210915
RWROHX
MIDDLE TENNESSEE HOURLY WEATHER ROUNDUP
NATIONAL WEATHER SERVICE NASHVILLE TN
400 AM CDT THU AUG 21 2014

NOTE: "FAIR" INDICATES FEW OR NO CLOUDS BELOW 12,000 FEET WITH
NO SIGNIFICANT WEATHER AND/OR OBSTRUCTIONS TO VISIBILITY.

* THESE REPORTS ARE NOT UNDER NWS QUALITY CONTROL AND MAY NOT
  REPORT WEATHER SUCH AS PRECIPITATION AND FOG.


TNZ005>011-023>034-057-059-062>066-078-080-211000
...NORTHERN MIDDLE TENNESSEE...

CITY           SKY/WX    TMP DP  RH WIND       PRES   REMARKS
CLARKSVILLE    MOCLDY    70  69  97 S5        30.05S
CROSSVILLE     PTCLDY    67  62  84 CALM      30.15S
GALLATIN         N/A     68  68 100 CALM      30.08S
NASHVILLE      CLEAR     71  69  93 CALM      30.07S
PORTLAND       CLEAR     68  66  94 S5        30.07R
SMYRNA         CLEAR     70  69  96 CALM      30.08S
SPARTA         CLEAR     66  66 100 CALM      30.10S
$$
TNZ056-058-060-061-075>077-079-093>097-211000
...SOUTHERN MIDDLE TENNESSEE...

CITY           SKY/WX    TMP DP  RH WIND       PRES   REMARKS
COLUMBIA       CLEAR     70  70 100 CALM      30.07S
FAYETTEVILLE   CLEAR     72  66  83 S5        30.10S
LEWISBURG      CLEAR     69  67  93 CALM      30.08S
MCMINNVILLE    CLEAR     66  66 100 CALM      30.10S
MURFREESBORO   CLEAR     69  68  97 CALM      30.07S
SHELBYVILLE    CLEAR     70  70 100 CALM      30.10S
TULLAHOMA      CLEAR     66  66 100 CALM      30.11F
WINCHESTER     CLEAR     68  66  94 CALM      30.11R
$$


...KEY TO REMARKS...
VSB - VISIBILITY IN MILES
WCI - WIND CHILL INDEX
HX  - HEAT INDEX



USA.gov is the U.S. government's official web portal to all federal, state and local government web resources and services.